Regional Weather Roundup
Issued by NWS Portland, ME

Current Version | Previous Version | Text Only | Print | Product List | Glossary Off
Versions: 1 2 3 4 5 6 7 8 9 10 11 12 13 14 15 16 17 18 19 20 21 22 23 24 25 26 27 28 29 30 31 32 33 34 35 36 37 38 39 40 41 42 43 44 45 46 47 48 49 50
788 ASUS41 KGYX 201805 RWRGYX WEATHER ROUNDUP FOR MAINE AND NEW HAMPSHIRE NATIONAL WEATHER SERVICE GRAY ME 100 PM EST SAT JAN 20 2018 MEZ002-005-006-010-012-015-018-020-021-024-026-027-029-201900- MAINE CITY SKY/WX TMP DP RH WIND PRES REMARKS PORTLAND FAIR 45 26 47 SW10 29.57S 6HR MIN TEMP: 32; 6HR MAX TEMP: 45; SANFORD FAIR 45 26 47 W17G25 29.59S BAR HARBOR FAIR 40 28 62 W8G16 29.52F WISCASSET FAIR 40 25 55 SW7 29.57S 6HR MIN TEMP: 32; 6HR MAX TEMP: 40; ROCKLAND FAIR 39 27 62 W12 29.55S FRYEBURG FAIR 48 28 46 W9 29.55R 6HR MIN TEMP: 24; 6HR MAX TEMP: 49; LEWISTONAUBURN FAIR 43 26 51 W6 29.55S AUGUSTA FAIR 42 24 49 VRB6 29.54S 6HR MIN TEMP: 28; 6HR MAX TEMP: 42; WATERVILLE FAIR 44 27 51 W15G24 29.48 BANGOR FAIR 40 25 55 W7 29.51R 6HR MIN TEMP: 30; 6HR MAX TEMP: 40; GREENVILLE N/A 34 26 72 W14G31 29.40R 6HR MIN TEMP: 21; 6HR MAX TEMP: 35; MILLINOCKET CLOUDY 38 28 67 W14G25 29.44R 6HR MIN TEMP: 27; 6HR MAX TEMP: 38; HOULTON CLOUDY 33 25 72 SW7 29.35S 6HR MIN TEMP: 27; 6HR MAX TEMP: 33; PRESQUE ISLE CLOUDY 37 27 67 W22G31 29.31F 6HR MIN TEMP: 28; 6HR MAX TEMP: 37; 6HR PCP: TRACE; FRENCHVILLE CLOUDY 33 26 75 W22G37 29.24S HAZE 6HR MIN TEMP: 24; 6HR MAX TEMP: 33; 6HR PCP: TRACE; CARIBOU CLOUDY 37 26 64 W14G25 29.30R 6HR MIN TEMP: 28; 6HR MAX TEMP: 37; $$ NHZ002-005-008-009-011-012-014-201900- NEW HAMPSHIRE CITY SKY/WX TMP DP RH WIND PRES REMARKS PORTSMOUTH PTSUNNY 43 24 48 SW8 29.61S ROCHESTER FAIR 45 26 47 VRB6 29.60S 6HR MIN TEMP: 29; 6HR MAX TEMP: 45; NASHUA FAIR 46 26 45 W10 29.65F MANCHESTER PTSUNNY 45 25 45 W10 29.62F 6HR MIN TEMP: 31; 6HR MAX TEMP: 45; CONCORD FAIR 46 27 47 W8 29.63R 6HR MIN TEMP: 26; 6HR MAX TEMP: 46; LACONIA FAIR 45 26 47 W13G22 29.60S PLYMOUTH FAIR 45 26 47 W15G24 29.61R BERLIN PTSUNNY 40 28 62 W9G21 29.54S 6HR MIN TEMP: 17; 6HR MAX TEMP: 40; WHITEFIELD FAIR 40 28 62 W8G18 29.60S 6HR MIN TEMP: 20; 6HR MAX TEMP: 41; JAFFREY FAIR 43 26 51 W9 29.65S 6HR MIN TEMP: 30; 6HR MAX TEMP: 43; KEENE FAIR 46 28 49 SW5 29.69S LEBANON FAIR 46 26 45 W8 29.64S 6HR MIN TEMP: 25; 6HR MAX TEMP: 46; MT WASHINGTON FOG 16 16 100 W63G72 N/A VSB 0 WCI -11 6HR MIN TEMP: 13; 6HR MAX TEMP: 22; $$ VTZ005-007-008-201900- VERMONT CITY SKY/WX TMP DP RH WIND PRES REMARKS ST JOHNSBURY N/A 41 29 62 MISG 29.60S MONTPELIER PTSUNNY 39 28 64 W10 29.66S BURLINGTON CLOUDY 41 27 57 W7 29.69R $$ MAZ007-012-024-CTZ003-RIZ002-NYZ038-NYZ072-201900- SOUTHERN NEW ENGLAND AND NY CITY SKY/WX TMP DP RH WIND PRES REMARKS BOSTON PTSUNNY 46 25 43 W17 29.67S WORCESTER FAIR 41 22 46 W18G32 29.66F NANTUCKET FAIR 45 34 65 W29G39 29.74F PROVIDENCE PTSUNNY 50 25 37 W14 29.73F HARTFORD PTSUNNY 44 26 49 W13 29.76F ALBANY FAIR 44 25 47 W17 29.79F NEW YORK CITY PTSUNNY 52 24 33 W16G29 29.84F $$ ANZ081-ANZ082-ANZ150-NHZ014-MEZ023>029-201900- COASTAL MARINE OBSERVATIONS STATION/POSITION TIME TEMP WIND PRES WAVE AIR SEA DIR/SP/G HT/PER (UTC) (F) (DEG/KT/KT) (MB) (FT/S) MOUNT DESERT ROC 1800 40 240/ 27/ 31 1000.3R MATINICUS ROCK 1700 40 260/ 30/ 33 1000.1F ISLE OF SHOALS 1700 40 240/ 18/ 19 1002.8F JEFFREYS LEDGE 1736 43 N/A 5/ 5 GEORGES BANK BUO 1650 51 59 1005.8 10/ 8 $$ .............KEY.............. WCI - WIND CHILL TC - TEMPERATURE IN CELSIUS VSB - VISIBILITY IN MILES HX - HEAT INDEX FAIR- INDICATES FEW OR NO CLOUDS BELOW 12,000 FT, WITH NO SIGNIFICANT WEATHER AND/OR OBSTRUCTIONS TO VISIBILITY.

USA.gov is the U.S. government's official web portal to all federal, state and local government web resources and services.